Theta_e
306 304 303 303 303 302 302 301 300 300 298 298 297 295 295 294 293 293 292 291 290 289 289 288 288 289 288 288 288 288 289 289 290 289 289 288 287 287 286 286 285 284 284 283 284 284 284 283 282 282 283 283 283 283 283 283 283 283 283 284 284 282 283 280 279 280 281 283 284 283 283 282 281 282 281 281 282 281 281 281 281 281 281 281 282
306 305 303 302 301 301 301 300 300 299 297 297 296 294 294 293 292 291 291 291 289 289 288 288 287 288 288 288 287 287 287 288 288 288 287 286 285 287 286 285 284 283 283 282 283 284 283 282 281 281 282 282 281 281 281 281 280 281 280 282 281 283 281 280 279 279 279 280 281 282 281 282 279 282 280 280 280 282 281 281 282 282 281 281 281
306 305 304 302 301 301 300 298 298 297 297 296 295 294 293 292 291 290 290 289 289 289 288 288 287 287 287 287 287 286 287 287 287 287 286 285 285 285 285 284 284 283 282 282 282 282 282 282 281 281 282 280 280 280 280 280 280 280 280 280 280 280 281 281 279 278 279 279 280 278 279 280 280 279 281 281 281 281 279 280 280 281 282 281 281
305 304 303 301 300 299 298 297 297 296 295 295 293 292 292 292 290 289 289 289 288 288 288 288 287 286 286 286 286 286 286 286 286 286 286 285 284 284 284 284 284 283 283 282 282 282 282 281 280 280 280 279 279 279 279 280 280 280 280 280 280 280 281 280 279 278 279 278 279 279 279 279 279 280 281 281 279 279 279 279 280 281 281 281 281
304 303 301 299 299 298 297 296 295 294 294 293 293 292 291 289 288 288 288 287 287 287 287 287 287 286 286 285 285 285 285 285 285 285 285 285 284 284 284 284 284 284 283 283 282 282 282 281 280 279 279 279 279 279 279 279 280 280 279 280 280 280 281 280 279 279 278 278 278 280 279 279 279 279 280 278 278 279 279 279 279 280 280 281 281
303 301 299 298 298 297 296 295 295 295 293 292 291 293 290 288 287 287 287 287 286 286 286 286 286 286 286 285 285 285 285 285 285 284 284 284 284 284 284 284 284 283 283 282 282 282 281 280 279 279 279 279 279 279 279 279 279 279 279 279 280 280 279 279 279 279 278 278 278 278 279 279 279 279 279 279 278 277 278 279 279 280 279 279 279
302 300 298 298 297 296 295 294 294 293 293 292 291 290 289 288 287 286 286 286 285 285 285 285 285 285 285 285 284 284 284 284 285 284 284 284 283 283 283 283 283 282 282 281 281 281 281 280 279 279 279 279 279 279 279 279 280 279 280 279 280 279 279 279 279 278 278 277 278 278 278 279 279 278 279 280 278 278 277 277 277 279 279 279 278
300 299 298 297 296 295 295 294 293 293 292 291 290 288 288 287 286 286 285 285 285 284 284 284 284 285 284 284 284 285 284 284 284 284 284 284 283 282 283 282 281 281 281 281 281 280 280 279 279 279 279 280 280 280 280 280 280 279 280 280 279 279 278 279 279 278 278 278 277 277 278 278 279 280 280 278 277 277 278 277 276 277 278 279 279
299 298 297 296 296 296 295 294 293 292 291 291 289 288 287 286 286 285 285 285 285 285 284 284 284 283 284 284 283 284 284 284 284 283 283 283 283 282 282 282 281 280 280 279 279 279 279 279 279 279 280 281 282 282 281 282 280 280 280 280 279 279 279 279 279 279 279 278 278 278 278 278 278 278 278 277 277 277 278 278 277 278 278 277 278
298 297 296 295 295 296 294 293 292 291 292 289 288 287 286 286 285 285 285 285 285 284 284 284 283 283 283 283 283 283 284 284 284 286 285 283 282 283 283 282 281 280 279 278 278 278 278 278 279 281 281 281 281 282 282 282 282 281 280 281 280 279 279 278 278 278 278 277 277 278 277 277 278 279 278 279 279 279 278 278 277 277 277 277 278
296 296 295 295 295 295 293 292 292 290 290 289 288 287 286 285 285 285 285 284 284 284 284 283 282 282 282 282 282 282 283 283 285 288 288 286 283 283 282 282 281 280 279 279 278 278 278 278 279 281 281 281 281 282 282 283 282 283 282 282 281 280 279 278 278 278 277 277 278 278 277 277 278 279 279 279 279 278 278 278 277 277 276 275 273
296 295 295 295 294 294 293 291 291 290 288 287 287 286 286 285 285 285 284 284 284 284 283 283 283 282 282 282 281 281 282 284 287 288 288 288 285 283 283 282 281 280 279 279 279 278 277 278 279 279 280 280 280 280 281 282 283 283 283 283 283 283 283 280 279 278 278 277 277 277 277 277 278 278 278 279 278 278 278 277 277 276 276 275 275
295 295 295 294 294 293 292 291 290 289 288 287 286 286 285 284 284 284 284 284 284 283 283 282 282 282 282 281 281 281 281 285 287 288 288 287 287 284 283 282 281 280 279 279 279 279 278 278 278 278 279 280 280 280 280 280 282 283 283 283 284 284 285 285 284 281 280 278 277 277 278 278 277 278 279 279 280 278 278 277 277 277 277 276 276
294 294 293 293 293 292 291 289 288 288 287 287 286 285 284 284 284 284 284 284 283 283 283 283 283 282 282 282 282 281 282 284 286 287 287 287 287 285 283 282 281 280 280 279 280 279 279 279 278 278 278 279 279 279 279 279 280 280 280 281 281 282 283 284 284 284 283 280 279 278 279 280 278 279 281 281 279 277 277 277 277 277 277 276 277
293 293 292 292 291 291 290 289 288 287 287 286 285 285 284 284 284 284 284 283 282 282 282 282 282 282 282 282 282 281 280 284 286 286 287 287 287 285 283 282 282 282 281 280 280 279 280 280 280 280 280 279 279 279 279 279 279 279 279 279 280 281 281 282 282 282 283 282 281 280 280 281 280 280 280 280 279 279 279 277 277 277 277 278 277
292 292 291 291 290 290 288 288 287 286 286 285 285 284 284 284 284 284 284 284 284 283 283 283 282 282 282 281 281 280 280 284 285 286 287 287 286 283 283 282 282 281 280 279 280 280 280 281 281 281 281 280 281 282 281 280 279 278 278 279 279 280 281 282 284 284 284 283 282 282 282 282 283 282 281 281 280 279 279 279 278 277 275 274 273
291 291 290 290 289 289 289 288 287 286 285 285 284 284 284 284 284 284 283 283 283 282 282 282 282 282 281 281 280 280 280 283 285 286 286 286 285 282 282 281 280 279 279 279 279 280 281 281 281 281 281 281 282 283 284 282 280 279 278 278 278 279 279 280 283 284 284 285 285 286 286 286 286 286 286 286 285 283 280 277 276 277 274 273 273
291 290 290 290 289 289 288 287 286 285 285 284 284 284 284 284 284 284 283 282 282 282 282 282 282 282 281 280 280 280 279 282 285 286 286 286 284 281 280 280 279 279 279 280 280 280 280 282 282 280 280 281 282 283 284 283 281 280 280 279 278 278 279 280 280 280 283 284 284 284 284 284 285 285 285 285 285 284 281 278 278 278 275 275 273
290 289 289 289 289 288 288 287 286 285 285 284 284 284 284 284 284 284 284 283 282 283 282 281 280 281 280 280 282 280 279 281 285 286 286 286 284 282 280 280 280 280 280 280 281 280 281 282 282 282 281 281 283 284 284 283 282 281 280 279 278 278 279 280 280 279 279 278 279 279 279 280 280 279 280 282 283 282 281 280 280 279 276 275 274
290 290 289 289 288 287 287 286 286 285 285 284 284 284 284 284 283 283 283 283 282 281 281 281 279 279 280 280 280 279 278 280 284 286 286 287 286 284 283 281 281 281 282 283 283 283 283 283 283 284 285 285 285 285 285 285 282 281 281 279 278 278 280 280 280 280 279 279 279 279 279 279 279 279 278 278 279 279 280 280 280 279 278 277 275
289 289 288 288 287 286 286 286 285 285 285 284 284 284 284 283 283 283 282 282 281 280 280 280 280 279 279 280 279 280 279 279 283 286 286 287 287 285 284 283 284 284 284 285 285 285 285 285 285 285 286 287 287 286 286 286 285 283 281 280 280 281 283 281 281 282 281 280 280 279 279 279 279 278 278 278 278 278 279 279 279 279 278 277 276
288 287 286 286 286 286 285 285 285 285 285 285 284 283 284 284 283 282 282 281 280 279 279 279 279 278 278 279 280 279 280 280 281 285 286 286 287 286 284 284 285 285 285 285 285 284 284 285 285 285 285 286 286 286 286 285 285 284 283 284 285 285 283 283 282 282 281 281 281 280 279 278 277 277 277 277 277 278 278 278 279 279 279 278 277
287 286 286 285 285 285 284 284 284 284 284 284 283 282 282 282 282 282 281 280 280 279 279 279 279 278 278 278 279 279 280 280 281 282 285 286 287 287 285 285 286 285 284 283 284 284 285 284 284 284 284 284 284 284 284 284 283 283 284 284 284 284 284 282 282 281 281 280 280 279 279 279 278 277 277 276 277 277 277 278 278 278 278 278 278
286 285 285 284 284 284 284 284 284 284 284 283 283 281 281 282 282 281 281 280 279 279 279 279 279 278 277 277 278 279 279 279 281 281 283 285 286 286 286 286 286 285 285 284 284 284 283 283 283 283 283 283 283 283 284 284 283 284 284 284 283 282 281 281 281 280 280 279 279 278 278 279 278 278 278 277 277 277 277 278 277 277 277 277 277
284 283 283 283 283 283 284 284 284 284 283 283 282 282 281 282 281 281 281 280 280 279 279 279 279 278 278 278 278 278 278 279 279 280 281 282 284 285 285 285 286 286 285 285 285 284 284 284 284 283 283 282 282 282 281 281 282 282 281 281 280 279 278 278 278 278 277 277 277 278 278 279 279 279 279 278 278 277 276 276 276 276 276 275 274
283 283 283 283 283 283 283 283 283 283 283 284 283 282 281 281 281 281 281 281 280 280 279 279 279 279 279 279 278 278 278 278 278 279 280 281 281 282 284 284 284 284 284 283 283 283 283 283 282 282 280 279 279 276 278 277 279 279 279 279 275 276 277 277 277 277 276 277 277 277 277 278 278 279 279 278 276 275 275 274 274 273 273 271 270
282 283 282 282 283 283 283 282 282 283 283 284 283 282 282 282 282 281 281 281 281 280 280 279 279 279 279 280 280 279 279 279 279 279 279 280 280 280 280 280 281 281 280 280 280 280 280 279 277 278 278 279 278 278 278 278 277 276 276 276 276 276 276 275 275 275 276 276 276 276 276 277 277 277 276 275 274 274 273 272 272 271 270 270 268
282 282 282 282 282 283 282 279 281 283 283 283 282 282 283 283 282 281 281 281 281 281 280 280 280 280 280 281 280 279 278 279 279 278 277 278 278 278 277 277 276 277 276 277 276 276 275 278 276 276 275 275 274 275 276 276 277 277 276 276 276 277 278 278 278 276 275 276 275 276 275 275 275 275 275 274 273 272 271 270 270 269 269 267 266
282 282 282 282 282 282 282 282 283 283 283 282 281 282 282 283 282 281 281 283 283 282 281 281 281 281 282 280 279 278 278 277 277 280 278 279 278 276 276 275 276 276 277 278 276 275 275 275 275 276 277 276 276 276 277 277 277 278 277 277 277 277 277 277 276 276 276 276 275 275 275 275 274 275 274 273 272 270 269 268 267 268 267 267 265
281 281 282 282 281 281 282 282 282 282 281 279 278 278 279 282 282 281 279 281 282 283 283 281 281 281 280 280 279 279 278 278 280 280 280 280 280 279 279 279 279 278 279 280 279 278 278 277 277 277 276 276 276 276 276 276 276 276 277 277 277 277 277 276 276 276 276 276 275 274 274 274 273 273 273 273 272 270 269 269 266 267 265 265 264
281 281 281 281 281 281 281 281 281 280 280 279 278 277 277 279 281 281 281 280 281 281 281 281 281 281 279 276 278 281 280 281 280 280 280 280 279 279 279 280 280 280 281 280 278 278 277 277 277 277 277 277 276 276 276 275 275 275 275 276 276 276 276 275 276 276 275 274 274 274 273 273 272 272 272 272 271 270 269 268 267 266 265 265 264
280 281 281 280 280 280 280 280 279 279 279 279 279 278 277 276 277 280 281 281 281 281 281 281 281 281 280 279 278 278 280 280 280 280 280 280 280 281 281 281 281 282 282 282 279 278 277 276 276 276 276 276 275 275 275 274 274 273 273 273 273 274 274 273 273 272 272 272 272 272 272 272 272 272 271 271 270 269 268 268 267 265 265 265 264
280 280 279 279 279 278 278 279 279 279 278 278 278 278 277 276 275 275 277 281 281 281 281 281 281 280 280 280 280 280 279 280 280 280 280 280 280 280 281 281 280 280 280 278 277 277 277 276 274 273 273 272 272 272 271 271 271 271 271 270 270 270 270 269 270 269 271 271 271 271 271 271 271 270 270 270 269 268 268 267 267 266 265 263 263
280 279 278 278 278 278 278 278 278 278 278 279 279 278 277 277 275 274 273 274 274 276 279 279 279 279 279 279 279 279 279 279 279 279 278 278 278 278 278 278 279 279 278 276 275 274 275 273 273 272 272 271 271 270 270 269 269 268 268 268 267 267 266 266 267 268 269 269 269 269 269 269 269 268 268 268 268 267 267 267 266 266 265 264 263
278 274 273 275 278 278 278 278 278 278 278 278 278 277 277 276 275 274 274 273 273 272 271 273 276 277 276 277 277 278 278 277 277 277 277 276 277 277 277 274 274 275 275 273 273 273 272 272 270 270 270 269 268 268 267 266 266 266 266 265 265 265 265 265 265 265 266 267 266 266 267 267 267 267 266 266 265 265 265 265 265 265 264 264 263
276 275 276 276 277 277 277 277 277 277 277 277 277 276 275 275 274 275 274 273 272 270 270 270 270 274 276 276 276 276 276 275 275 274 274 274 274 275 271 271 271 271 271 270 269 269 269 269 269 268 267 267 267 266 265 265 265 264 264 263 263 263 262 262 263 263 263 263 263 264 265 264 265 265 264 264 264 264 264 264 264 264 263 263 263
275 274 274 275 275 275 275 275 275 275 275 273 273 274 275 275 274 274 273 272 270 269 267 267 268 270 271 270 273 274 274 273 273 273 272 272 273 271 269 270 269 269 269 268 267 267 267 267 266 265 265 264 264 264 264 263 262 262 263 262 261 260 260 261 261 261 259 260 260 260 260 261 262 262 262 262 262 262 262 262 262 262 262 262 262
274 274 273 272 272 272 272 271 271 271 272 272 272 272 272 272 272 272 271 269 268 267 267 267 268 267 267 268 271 270 270 271 271 270 269 269 267 266 266 266 266 266 266 265 265 264 264 264 263 262 262 262 261 261 261 261 261 261 260 259 260 259 263 261 261 258 259 258 258 258 259 259 259 260 261 260 260 260 261 261 261 260 260 260 260
271 271 271 272 273 272 270 269 270 271 271 271 271 271 270 270 270 270 269 268 267 267 267 267 268 267 267 267 267 268 268 267 266 264 263 263 263 264 264 264 264 264 263 262 262 262 262 262 261 261 261 260 260 260 260 260 259 259 258 258 258 258 259 258 258 258 258 257 257 257 257 258 258 258 259 259 259 260 260 259 259 259 258 258 259
269 270 271 272 271 270 269 269 270 270 269 270 269 269 269 269 269 268 268 267 266 266 266 266 265 265 265 264 266 267 266 266 265 263 262 262 261 261 262 262 262 262 261 261 261 260 260 260 260 259 258 258 258 258 259 258 258 258 258 258 257 257 257 257 257 257 256 257 256 256 256 256 257 257 256 257 258 259 259 258 258 258 258 258 258
270 270 268 271 270 270 269 269 269 269 269 268 269 269 269 268 268 267 267 266 266 266 265 265 264 264 265 266 269 268 265 264 263 262 262 261 260 259 260 260 260 259 260 259 259 259 259 258 259 258 258 258 258 257 257 257 257 257 257 257 257 257 257 256 256 256 255 255 255 255 255 255 256 256 255 256 260 259 258 258 258 257 257 257 257
269 268 268 268 268 269 268 268 267 266 267 267 268 267 266 266 266 266 266 265 265 264 264 263 263 264 266 268 268 268 263 262 262 261 261 260 259 259 259 258 259 258 259 259 258 258 258 257 257 257 257 257 257 257 257 256 256 256 256 256 256 256 256 256 256 255 254 254 254 254 254 255 256 256 258 259 258 256 256 256 255 255 255 255 256
268 268 267 267 268 267 267 266 266 266 266 267 266 265 265 265 265 265 265 264 264 263 263 262 262 262 264 267 266 265 261 260 260 259 259 259 259 258 258 258 258 257 256 256 257 256 256 256 256 257 256 256 255 255 255 255 256 256 255 254 254 254 254 255 255 255 254 254 254 254 253 253 255 254 254 255 255 255 254 254 254 254 254 253 254
267 267 267 266 266 265 265 266 266 265 265 263 263 264 264 264 264 264 263 262 262 262 262 261 261 261 261 261 261 260 259 259 258 258 257 258 258 258 258 258 257 256 255 255 255 255 255 254 254 255 255 255 254 253 254 254 254 253 253 253 254 254 254 254 254 253 254 253 253 253 253 253 254 253 254 255 253 253 253 253 253 253 253 252 253
266 266 265 265 265 265 264 264 263 262 262 262 262 262 262 263 263 263 262 262 262 261 261 260 260 259 259 258 257 258 258 258 258 258 258 257 257 257 257 256 255 254 255 255 255 253 253 253 253 252 252 253 253 253 253 253 253 253 253 253 252 254 254 254 253 253 253 251 252 252 253 254 253 253 254 254 253 252 253 252 252 255 253 252 252
265 265 264 264 263 263 263 262 261 262 263 262 262 262 262 262 262 261 262 261 261 260 259 259 259 258 259 258 258 258 258 257 257 257 257 257 257 257 257 256 255 254 254 255 254 252 253 253 253 253 253 252 252 253 253 252 253 253 252 252 253 253 254 253 253 252 251 250 252 252 253 253 253 253 254 252 252 253 251 251 251 252 252 252 252
265 264 264 263 262 261 261 261 262 261 262 262 261 261 261 261 260 260 259 260 260 259 259 258 258 258 258 258 258 257 257 257 257 257 255 255 255 255 255 254 254 253 254 253 252 253 251 252 252 252 252 252 252 252 252 253 252 253 253 253 253 253 252 253 252 252 251 252 252 251 252 252 253 252 253 253 252 252 252 252 251 251 251 252 251
264 263 263 262 261 261 260 260 260 259 260 260 260 260 259 259 259 259 258 258 258 258 258 258 258 258 257 258 257 257 257 257 257 256 256 255 254 254 253 252 252 253 253 253 252 253 253 252 252 251 251 251 251 251 252 252 252 253 252 253 253 252 253 253 251 251 251 251 250 250 250 251 251 252 252 251 250 251 251 251 252 252 251 252 252
262 262 262 261 261 261 260 260 260 260 260 259 259 259 258 258 258 258 258 258 258 258 258 258 258 258 257 257 257 257 257 256 255 255 255 255 255 254 254 252 252 252 252 253 253 252 252 252 252 252 251 251 251 251 251 251 252 252 252 252 253 255 255 254 252 251 252 251 251 250 250 250 250 250 251 250 251 250 251 250 250 251 251 251 252
261 260 260 260 260 260 260 260 260 260 259 259 259 258 258 258 258 257 257 257 257 257 257 257 257 258 258 257 257 257 256 256 256 255 255 256 256 255 254 252 251 251 252 252 253 253 252 252 251 251 251 251 251 251 251 251 251 252 251 252 255 256 255 255 254 253 252 251 251 251 251 250 250 250 250 250 250 250 249 250 250 251 251 250 250
260 260 259 259 259 259 259 259 259 259 259 259 259 258 257 258 258 257 257 256 257 257 257 257 257 257 256 257 256 256 256 256 256 256 256 256 255 254 254 253 253 251 252 252 252 252 252 252 252 252 251 251 251 251 251 251 251 251 253 254 255 255 255 255 254 254 254 253 252 252 252 251 250 250 250 250 250 249 250 251 250 249 249 250 250
Wind_Speed
12 11 10 12 12 13 10 10 10 9 8 9 9 8 9 8 7 7 6 5 7 7 8 8 8 8 8 7 7 7 8 8 7 7 6 7 6 7 7 7 8 7 7 7 5 6 7 7 6 5 5 6 5 5 4 3 3 3 3 2 0 1 1 1 2 4 1 2 2 3 3 3 3 4 5 4 4 5 7 6 5 5 5 5 5
12 11 11 10 13 12 12 9 9 8 8 9 9 8 8 8 7 6 8 7 7 8 8 7 7 7 8 8 7 6 7 8 8 7 8 8 7 6 7 8 8 8 8 8 6 5 7 8 7 6 5 7 6 5 4 3 2 3 2 1 1 1 1 1 3 2 4 2 1 4 3 3 4 4 6 5 5 4 5 5 5 5 5 5 5
10 10 10 10 12 11 10 9 8 9 9 8 8 8 6 7 7 8 7 7 7 8 8 9 8 8 7 7 7 7 8 8 8 8 8 9 9 8 7 8 9 9 9 8 8 7 7 7 7 6 5 7 5 4 4 3 3 2 1 1 0 1 0 1 1 3 4 4 3 3 3 5 6 4 4 4 3 4 4 6 6 5 5 5 6
10 10 9 9 10 10 9 8 10 9 10 8 8 7 6 6 7 7 7 6 8 7 8 9 8 8 7 7 7 7 8 8 8 8 10 10 10 10 8 8 8 9 9 9 8 7 8 8 6 7 6 7 5 4 4 3 4 2 1 0 0 1 1 0 2 2 2 4 3 2 3 3 4 3 3 3 4 5 6 6 6 6 6 6 7
10 10 9 10 10 9 9 8 10 10 9 8 10 9 7 7 7 8 8 7 8 7 8 8 8 8 8 8 8 8 8 8 9 8 8 8 10 10 9 8 8 8 8 9 8 8 7 8 7 7 7 7 5 4 4 4 3 2 1 1 1 1 1 1 1 2 3 6 6 4 2 3 2 3 3 4 5 6 6 8 6 7 7 6 6
10 9 9 10 10 11 9 9 11 11 10 9 9 10 8 8 8 8 8 8 8 8 8 9 9 10 10 10 9 9 9 8 9 9 10 10 10 9 9 9 9 8 8 8 8 7 9 9 7 6 7 7 5 4 4 4 3 2 1 2 1 1 2 2 2 3 4 5 5 6 5 5 5 5 5 6 6 6 6 6 6 6 6 6 6
9 9 9 10 10 11 10 10 8 10 11 10 9 9 9 8 9 9 8 9 9 9 7 10 9 10 10 10 10 9 9 9 9 9 9 9 10 10 9 8 7 7 7 8 8 8 9 9 8 7 7 6 6 6 5 4 3 3 4 3 3 2 3 3 3 4 4 5 6 6 7 7 6 7 4 4 5 5 6 6 7 6 6 7 6
9 9 10 10 10 10 10 10 10 10 10 10 9 10 10 9 8 7 8 9 9 8 9 12 10 9 9 8 8 9 9 10 9 9 9 9 9 9 9 9 8 8 8 7 7 7 7 7 8 8 8 6 6 6 6 5 4 4 4 4 4 4 4 3 4 4 4 5 6 7 7 7 5 5 4 3 5 7 7 7 9 8 6 5 5
10 10 10 10 10 9 9 9 8 10 10 10 10 10 11 10 9 8 8 8 7 6 5 8 8 9 8 7 8 7 8 8 8 10 10 9 10 11 10 10 10 10 9 9 7 8 7 7 8 8 8 8 9 7 6 5 4 3 3 4 5 4 3 3 3 3 3 5 7 7 8 8 7 6 7 7 8 10 5 5 7 7 5 6 7
10 10 10 10 9 9 9 9 9 10 11 10 10 10 10 9 9 7 9 8 7 6 5 7 7 8 7 7 6 6 7 6 9 15 13 12 10 8 9 9 10 10 10 8 7 7 7 7 7 9 10 9 9 9 9 9 8 6 3 4 3 3 4 4 5 4 5 7 8 7 8 8 8 8 9 9 7 6 6 6 9 8 5 8 8
10 10 10 8 8 8 8 9 10 10 10 10 10 10 9 8 9 4 6 6 8 7 7 9 9 8 8 9 9 7 6 7 14 14 12 13 11 10 10 9 8 8 9 9 8 8 7 6 6 8 8 7 7 10 10 11 11 12 12 11 8 5 4 6 6 6 7 9 9 7 8 10 11 10 9 10 8 8 7 6 8 7 7 8 11
10 10 9 8 9 9 8 9 10 10 10 10 10 7 8 8 7 6 6 6 6 6 8 9 9 7 6 5 5 6 6 7 11 11 12 13 10 10 7 8 7 8 8 10 7 8 9 7 5 5 5 6 5 5 8 11 12 13 13 14 14 16 14 9 7 7 8 9 9 9 8 11 12 10 9 9 9 8 7 7 9 9 10 9 10
9 9 9 9 9 9 8 9 10 10 10 10 8 7 7 7 7 7 8 7 7 8 6 8 8 7 7 7 7 7 6 8 10 9 10 13 13 11 8 8 9 8 9 10 11 8 7 6 6 4 4 9 6 4 5 5 10 13 13 14 17 17 18 19 18 13 8 9 10 12 11 10 12 13 10 9 8 9 8 8 9 8 9 9 11
9 9 9 9 9 9 9 7 8 9 9 8 8 8 7 8 7 6 6 6 7 6 6 7 6 6 7 7 5 5 4 7 11 11 12 13 14 11 7 8 8 8 10 10 7 8 10 9 8 5 4 5 5 6 5 5 5 5 6 7 8 11 16 21 22 24 18 12 11 13 15 10 13 14 11 7 9 9 9 10 9 9 9 11 9
9 9 9 9 9 9 9 9 7 8 8 9 9 8 9 7 8 6 7 8 9 9 9 9 7 6 5 6 6 6 6 11 12 13 13 12 13 7 6 6 5 5 6 9 10 10 8 7 7 7 7 5 5 7 5 5 5 5 7 9 8 8 8 10 12 11 11 11 13 15 16 13 12 12 11 8 9 9 9 10 10 8 8 8 9
8 8 9 9 9 8 9 9 7 7 8 9 9 9 9 8 9 6 5 4 4 5 4 5 7 7 7 6 5 6 5 13 13 12 12 11 10 3 3 4 5 5 6 7 8 6 6 7 6 5 6 6 8 13 9 4 5 8 10 10 10 9 10 10 12 11 10 10 11 13 13 13 13 12 11 9 7 8 9 9 8 7 8 10 12
8 9 8 9 9 8 9 10 7 8 8 9 9 9 9 7 6 5 6 4 5 6 6 5 5 6 6 6 6 5 5 10 13 12 12 13 8 3 4 4 4 5 5 5 6 5 6 6 6 5 5 5 7 12 13 11 8 9 10 12 11 9 11 7 11 16 19 21 22 23 25 26 26 27 27 27 19 12 7 9 11 6 7 11 12
7 8 8 7 8 8 9 7 7 7 8 9 9 7 5 4 5 5 7 7 7 6 4 4 4 4 5 6 6 5 5 7 12 13 14 14 9 6 4 4 4 4 4 3 3 4 5 6 5 5 6 5 7 11 13 11 9 9 9 11 13 12 9 4 5 7 15 20 23 24 25 25 24 25 25 25 24 18 12 13 12 8 11 11 13
7 7 7 7 7 7 7 7 8 8 8 8 8 9 8 6 5 5 5 5 5 4 5 5 5 4 4 5 5 6 5 7 12 13 14 14 10 6 6 5 5 4 4 4 3 3 4 5 8 7 6 6 10 12 14 11 9 8 8 9 12 13 8 6 9 9 7 6 9 9 11 14 12 11 12 20 21 17 13 14 11 11 12 12 11
7 7 7 7 7 5 6 8 8 9 9 8 7 7 6 6 6 6 6 4 5 4 5 4 6 4 4 4 5 5 6 6 9 15 15 16 14 8 6 6 6 6 5 5 5 4 5 5 8 13 15 15 14 14 13 14 9 8 7 9 10 13 8 7 8 8 10 9 9 9 11 10 9 10 10 10 11 10 11 11 11 11 12 11 10
7 7 7 7 5 6 6 7 8 7 7 8 8 7 6 7 7 6 6 5 6 6 6 4 4 4 3 2 3 2 3 5 8 16 18 18 17 13 6 6 5 5 5 5 4 4 3 4 4 9 13 14 13 14 14 16 15 9 7 8 8 10 12 9 10 11 10 10 10 10 9 8 9 8 9 10 9 8 8 10 11 10 10 11 11
7 7 5 6 7 7 7 7 8 8 8 9 8 7 6 7 7 8 5 6 8 7 6 5 5 4 3 2 3 2 2 4 3 8 12 14 15 13 6 5 5 5 4 3 3 2 2 1 1 2 6 8 10 11 12 13 15 8 8 14 19 20 14 9 9 8 8 8 8 9 8 7 6 7 8 8 8 9 8 8 8 9 9 9 10
7 6 7 7 7 8 8 9 8 7 7 8 9 8 7 8 8 7 7 7 7 6 6 5 5 5 4 3 2 2 2 3 6 4 9 12 14 14 10 5 7 3 2 2 1 1 0 1 1 2 2 4 6 8 10 12 10 7 13 15 16 19 15 8 8 8 8 9 9 9 8 7 7 7 7 7 7 7 7 7 7 7 8 8 9
7 8 8 8 8 7 7 7 7 7 8 8 8 9 8 8 7 6 7 7 6 6 5 5 4 5 5 4 3 3 2 2 4 5 4 9 11 13 12 9 6 2 2 3 2 2 2 1 1 2 5 8 9 9 10 9 7 11 12 11 11 9 5 6 6 7 8 9 9 9 9 6 6 7 7 6 6 6 7 7 7 8 8 8 8
9 9 9 8 8 7 7 7 7 7 7 8 8 7 9 8 7 6 7 6 6 6 5 5 5 5 5 5 4 4 3 2 2 4 6 4 8 11 11 10 10 9 5 4 4 3 3 5 6 8 8 7 6 6 5 6 7 7 8 12 12 5 5 6 7 7 8 9 9 9 9 8 7 8 6 5 6 5 5 4 4 5 4 3 4
9 9 9 8 8 9 9 8 8 7 7 6 7 7 8 7 7 7 6 6 6 6 5 5 5 5 4 4 5 4 4 3 3 3 5 5 4 6 9 9 8 8 5 3 4 5 6 7 8 6 2 2 2 1 2 2 6 9 10 9 4 3 2 3 4 6 7 7 8 8 8 8 8 8 8 6 4 4 3 4 4 4 2 3 5
9 9 9 8 9 9 9 7 7 7 6 6 6 6 5 5 6 6 6 6 5 5 5 6 5 5 5 4 5 5 5 5 4 4 4 4 3 3 3 3 5 4 2 1 1 1 1 0 0 2 3 5 5 6 5 5 4 3 2 2 1 1 2 2 3 4 6 6 7 7 7 6 7 7 7 6 6 4 2 3 4 5 2 3 4
9 9 10 9 7 8 8 10 9 7 6 6 6 6 4 4 5 5 5 6 6 6 6 6 5 5 5 5 4 4 4 3 4 4 4 4 3 3 3 2 2 2 2 1 2 1 1 1 1 1 1 1 2 2 2 1 2 2 2 2 2 4 6 7 7 4 4 5 5 6 5 6 6 7 6 5 5 4 1 0 2 4 2 1 3
10 10 9 8 8 7 7 7 7 7 7 7 6 4 3 4 5 5 5 2 2 3 4 4 3 3 3 4 4 3 3 4 3 5 5 7 5 3 3 3 3 2 3 5 3 1 2 2 2 2 2 2 2 2 2 2 2 2 2 3 2 3 3 2 3 3 4 4 5 6 7 6 7 7 7 7 6 5 1 0 2 2 3 2 5
10 9 8 8 8 8 7 7 7 7 7 7 8 9 13 14 7 4 3 8 12 12 8 3 2 3 4 3 1 2 3 4 10 11 10 9 9 8 7 7 7 4 5 6 4 2 2 2 3 3 3 4 4 4 3 3 3 2 2 4 3 2 3 3 3 4 3 4 4 5 6 7 7 7 7 7 5 3 1 2 2 2 2 4 5
8 8 8 8 8 8 8 7 7 7 7 7 6 8 7 9 15 14 12 10 12 13 12 12 10 7 5 4 8 16 14 13 12 10 10 9 9 8 7 7 7 8 8 4 4 4 4 4 4 4 4 3 3 2 1 2 3 2 2 2 2 3 3 3 3 4 4 4 5 5 6 6 7 7 7 6 6 5 4 1 2 2 3 4 5
8 6 6 8 9 8 5 8 8 8 7 7 7 7 7 9 9 12 13 12 13 13 13 13 13 13 12 10 7 6 10 11 11 10 10 10 9 9 8 8 7 7 7 6 4 4 4 4 4 2 0 0 1 2 1 2 2 2 3 3 3 3 3 3 5 5 5 5 5 6 6 6 7 7 6 6 6 6 6 5 3 3 3 3 4
10 10 9 9 7 9 7 7 8 8 8 8 7 8 7 8 9 8 10 15 15 14 13 13 12 11 11 10 10 8 8 9 10 10 9 8 7 7 7 6 5 4 4 3 4 4 3 1 2 2 1 1 0 1 1 1 1 1 1 2 2 2 3 4 5 4 5 5 5 5 5 6 6 7 7 6 6 6 5 5 5 4 3 3 4
9 9 8 10 10 8 8 8 8 8 7 7 7 8 7 8 8 8 8 6 8 12 14 13 12 13 12 11 11 11 11 10 9 8 7 6 5 5 5 3 4 5 5 2 1 2 2 1 1 1 1 1 1 0 0 0 1 1 1 1 2 2 3 3 3 3 3 5 4 5 6 6 6 6 7 7 6 7 6 6 5 5 5 4 5
7 9 12 9 8 8 8 7 8 8 7 7 7 7 8 7 8 8 8 8 8 7 5 6 8 9 8 8 10 11 11 11 10 9 8 7 6 6 6 3 3 3 3 2 2 2 2 2 1 1 0 0 0 1 0 1 1 1 1 2 2 2 3 3 3 3 4 4 5 5 6 6 6 6 6 6 6 7 7 6 6 6 6 5 5
9 9 7 8 7 6 7 7 7 8 8 7 6 7 8 8 6 6 6 6 6 7 6 4 4 7 12 12 12 11 11 10 9 8 6 4 3 5 2 3 3 2 2 1 2 1 2 1 1 1 1 1 1 1 1 1 1 1 1 1 1 2 2 2 4 3 3 3 4 4 5 5 5 6 5 6 6 6 5 6 6 5 5 5 5
10 9 7 6 7 7 7 6 6 6 6 7 7 7 7 6 4 6 5 6 6 5 6 5 5 5 6 5 8 10 11 10 9 9 8 6 5 2 1 1 1 2 2 1 1 1 1 2 2 2 1 1 1 1 1 1 1 0 1 1 1 1 1 1 2 3 2 3 3 3 3 3 4 4 4 5 6 5 5 5 5 6 6 7 8
9 9 8 8 8 8 8 7 7 9 7 5 3 4 6 6 5 5 5 6 7 7 7 5 5 5 5 5 6 4 6 8 8 7 6 6 4 2 2 1 1 1 1 2 1 1 1 2 2 2 1 1 1 1 1 0 0 0 0 0 1 1 4 3 4 1 1 3 3 3 3 3 3 3 4 4 4 4 5 5 4 5 5 7 5
6 8 9 9 8 5 5 6 6 6 5 5 4 6 5 6 6 6 5 5 6 5 4 4 4 3 3 4 3 4 5 2 2 2 2 2 2 1 1 1 1 1 2 1 1 1 1 1 2 1 1 0 1 0 0 0 0 0 0 0 1 1 1 1 2 1 1 2 2 3 3 3 3 3 3 3 3 3 3 3 4 4 5 5 5
5 5 6 9 7 7 4 5 5 5 3 6 6 5 5 5 5 6 7 7 6 5 4 4 3 3 3 3 3 3 3 2 3 2 2 1 1 1 1 1 1 1 1 1 1 1 0 0 1 1 1 0 1 1 0 0 0 0 0 1 1 1 2 1 1 2 2 2 2 3 3 3 3 3 3 3 3 3 3 3 3 4 4 4 5
5 6 7 7 8 7 7 6 3 3 4 3 4 5 5 5 6 5 6 6 5 5 4 3 3 3 3 4 5 4 2 2 3 2 2 2 1 1 0 1 1 1 1 1 1 1 0 0 0 0 0 1 1 1 1 0 0 0 1 1 1 1 1 2 2 2 3 2 3 3 3 3 3 3 3 3 5 4 3 3 3 3 4 3 4
6 5 5 4 6 5 5 5 5 5 6 5 5 3 4 4 4 4 5 5 4 4 5 4 3 3 4 7 6 6 3 2 3 2 2 2 1 1 1 1 1 1 0 1 1 1 0 1 1 1 1 1 1 1 1 1 1 1 1 1 1 1 1 2 2 2 2 3 4 4 3 3 3 3 4 5 3 3 3 3 3 3 3 4 3
7 5 5 4 5 3 4 4 4 4 4 4 4 5 5 5 4 4 4 4 5 5 5 5 4 3 3 5 5 5 3 2 3 1 1 1 1 1 1 1 1 1 1 0 1 0 0 0 0 1 1 1 1 1 1 1 0 1 1 1 2 2 2 2 2 3 3 4 4 3 3 3 4 4 3 3 3 3 3 3 3 3 4 3 3
5 4 4 5 6 6 4 3 4 3 4 6 7 4 4 4 4 4 4 5 4 4 4 3 3 3 2 2 2 1 1 1 1 1 1 1 2 2 2 2 2 2 1 1 1 1 1 1 2 2 1 1 1 1 1 1 1 2 2 2 2 3 3 3 3 3 4 3 3 3 4 4 4 4 4 5 4 4 4 3 4 3 3 3 4
4 5 5 5 4 4 4 3 4 6 7 5 4 3 3 3 3 3 3 4 3 3 3 3 3 3 2 1 1 1 1 2 2 2 2 2 2 2 2 2 2 2 2 2 2 2 2 3 2 2 3 2 2 3 3 3 3 3 4 4 4 4 4 4 4 2 1 1 3 3 4 4 4 4 4 4 4 4 4 4 4 4 3 3 4
4 4 4 4 4 3 4 4 4 4 4 4 4 3 3 3 3 3 3 3 3 3 3 3 3 2 2 2 2 2 2 2 2 2 2 2 2 2 2 2 2 2 2 2 2 3 3 3 3 3 4 3 3 3 3 4 4 4 4 4 5 5 4 3 2 2 3 4 4 4 4 4 4 5 5 4 3 4 4 4 3 3 4 4 4
5 4 4 4 4 4 4 4 3 3 5 4 4 4 4 3 3 3 3 3 3 3 3 2 2 2 2 2 3 3 2 2 2 2 2 2 1 1 1 1 1 1 2 2 2 3 3 4 4 4 4 4 3 4 4 3 3 3 4 5 4 5 4 3 4 4 4 4 4 4 4 4 5 4 5 4 4 4 4 4 4 4 4 4 4
4 4 4 4 5 5 4 3 5 5 4 4 4 4 3 3 3 3 3 3 2 2 2 2 2 2 2 2 2 2 1 2 1 1 1 1 2 2 2 2 1 2 2 2 3 3 3 4 4 4 5 5 4 5 5 5 5 4 4 4 4 4 5 6 4 4 4 4 4 5 5 5 5 5 5 4 4 4 4 4 3 3 4 4 5
4 4 4 4 4 4 4 4 3 4 4 4 4 4 3 3 3 2 2 2 2 1 1 2 2 1 1 1 1 1 1 1 1 1 1 2 2 2 2 2 2 2 2 3 3 4 4 4 4 5 5 5 5 5 5 5 5 5 5 4 6 10 10 9 6 5 6 5 5 5 5 5 5 5 5 4 5 4 4 4 4 3 3 3 3
3 3 4 4 4 3 3 3 4 4 4 4 4 3 3 3 2 2 2 1 1 1 0 0 1 1 1 1 1 1 2 2 2 2 2 2 2 2 2 2 2 3 3 4 4 4 4 4 4 5 5 5 6 6 5 6 6 6 5 6 10 12 11 11 11 10 7 4 5 5 5 5 5 5 5 6 5 5 5 4 4 5 3 4 4
4 5 3 4 4 3 3 3 4 3 3 3 3 3 3 2 2 2 2 1 1 1 1 1 1 1 1 1 1 1 1 1 1 2 2 2 2 2 3 3 3 3 4 4 5 5 5 4 5 5 5 6 6 6 6 6 6 6 9 12 13 12 12 10 7 9 12 9 5 5 6 6 5 6 5 5 5 5 7 5 5 4 4 3 3
Wind_Direction
197 197 195 205 205 202 191 190 190 185 182 185 195 194 191 185 180 185 160 165 165 171 179 178 177 179 174 174 173 170 161 156 159 157 153 143 142 133 138 137 135 132 131 128 132 136 128 121 116 110 117 106 95 90 85 84 62 54 42 29 28 52 4 307 284 281 100 64 127 152 148 154 204 201 219 223 207 211 216 232 236 238 244 248 253
203 199 195 199 205 202 197 191 190 184 182 184 193 191 189 185 178 161 178 179 169 177 177 172 172 176 178 174 174 172 160 158 162 160 153 141 129 137 145 145 140 135 137 139 139 131 127 123 119 115 103 98 97 96 102 99 86 81 78 46 5 48 17 1 288 277 273 128 187 115 160 179 227 213 195 220 232 220 221 226 233 230 238 246 245
204 202 200 201 203 200 191 187 179 187 195 194 195 186 163 170 170 174 176 169 171 178 175 172 174 175 176 174 174 173 163 162 166 161 151 148 144 147 154 151 147 145 146 146 143 137 128 124 122 109 95 97 97 96 97 96 80 78 72 65 26 329 36 336 313 276 285 281 131 175 186 197 211 224 202 206 228 238 247 248 241 238 230 233 242
198 202 202 198 196 195 193 180 196 196 200 196 184 179 171 168 168 176 171 165 175 179 179 173 168 171 172 176 176 175 168 166 166 160 154 152 150 152 152 151 149 149 147 144 144 142 135 121 109 107 104 103 110 112 105 101 101 97 116 127 139 299 335 125 299 290 305 290 270 203 228 205 221 216 217 217 224 237 240 245 238 235 234 233 235
194 195 191 192 191 192 191 173 186 193 195 192 198 189 180 170 174 178 171 169 172 166 173 172 170 171 178 180 181 179 176 171 166 157 152 151 152 152 153 149 147 148 146 145 142 134 124 113 112 112 122 121 125 126 131 120 114 117 142 171 166 237 172 222 237 272 265 267 277 279 262 248 241 239 215 225 243 244 236 238 234 233 237 233 232
194 187 190 192 195 195 190 183 192 197 191 192 188 193 184 180 175 182 171 164 171 175 166 179 181 184 186 187 185 183 176 173 166 159 158 157 154 152 148 148 149 145 137 133 130 126 124 117 120 124 138 143 142 136 125 130 135 164 192 212 210 206 219 211 221 224 245 254 269 281 273 255 252 234 212 224 241 253 259 247 236 227 232 240 236
189 189 189 194 194 195 194 190 178 187 190 194 188 186 182 178 175 173 170 171 176 180 165 179 186 189 189 185 185 180 173 171 168 164 154 151 151 153 150 142 134 129 127 126 121 117 119 123 127 136 144 145 145 142 136 146 165 193 205 209 212 215 226 227 226 229 232 252 262 261 270 262 250 261 246 204 218 237 253 272 263 242 231 234 244
189 192 188 192 193 192 194 189 184 181 184 186 184 184 180 177 175 172 171 180 184 177 175 187 187 187 187 186 185 177 174 173 167 158 156 154 151 147 148 147 140 127 119 117 115 114 112 112 128 146 152 154 147 142 150 164 175 194 211 198 207 214 227 236 241 235 232 243 255 265 264 270 260 252 240 221 248 251 235 236 257 261 249 241 224
189 192 193 196 197 188 186 185 180 179 182 186 184 180 184 180 176 170 173 182 187 172 164 175 180 187 184 182 184 183 179 174 166 160 153 152 155 156 155 150 145 139 131 124 119 120 122 130 141 153 158 156 152 157 165 170 175 198 208 196 206 214 227 234 244 244 253 255 263 262 265 266 262 259 256 238 232 252 243 218 249 255 256 263 256
188 191 198 200 193 189 185 177 178 178 185 178 176 170 174 174 165 163 176 180 185 163 143 168 185 187 187 182 185 182 185 182 170 169 169 166 163 154 151 153 150 145 137 124 120 125 131 137 150 155 163 157 163 173 187 196 206 212 207 216 211 212 220 223 235 245 252 257 258 262 269 271 265 254 259 256 258 261 258 246 257 264 262 261 267
191 193 201 195 190 187 183 175 176 181 181 172 174 172 161 148 168 160 170 173 172 167 154 173 185 190 192 191 189 192 187 186 179 172 162 159 158 154 153 151 145 142 142 140 139 143 142 143 142 159 156 164 179 194 206 211 220 222 225 226 227 221 218 232 237 229 241 255 261 260 263 268 264 261 260 271 265 255 252 252 258 262 259 271 278
189 192 192 188 188 189 186 174 180 181 173 167 167 168 164 165 171 161 169 167 169 164 175 185 184 187 188 193 192 195 199 179 174 167 159 157 154 155 146 139 144 150 155 147 124 147 157 152 143 143 164 167 167 191 214 223 227 229 232 235 234 235 232 226 233 242 239 249 261 255 254 256 267 264 266 268 267 262 252 247 252 255 263 263 264
189 187 185 185 188 185 182 176 178 172 171 166 168 164 162 164 165 164 172 169 160 174 178 170 181 183 183 183 181 183 194 182 174 170 154 151 152 154 155 153 151 158 164 162 159 146 141 141 144 162 153 175 178 184 193 220 231 237 242 246 249 246 245 244 242 238 238 249 257 263 247 251 263 265 257 260 268 267 266 264 259 257 260 264 265
187 184 180 183 184 180 178 168 169 163 156 160 155 155 158 167 166 164 160 155 165 169 171 178 176 181 184 188 182 173 172 168 175 169 169 166 159 155 159 160 163 163 166 166 142 142 157 162 164 165 161 171 185 189 202 213 214 223 234 236 237 241 242 246 247 247 244 240 246 253 256 235 250 264 270 275 274 269 277 276 278 275 269 266 276
184 180 177 175 173 174 168 163 160 154 156 154 156 156 160 157 159 156 159 169 173 176 177 179 183 178 179 177 171 172 175 171 181 184 182 174 166 146 146 154 150 139 130 140 160 162 161 161 168 176 181 171 182 188 192 204 211 232 243 251 246 240 235 232 232 234 236 237 240 248 260 258 257 269 279 278 271 275 278 278 277 273 279 292 287
175 174 173 173 173 167 161 161 158 155 152 156 160 160 161 160 161 151 138 134 128 146 156 167 174 177 176 171 168 176 169 176 183 183 180 176 162 128 116 129 133 141 147 154 157 153 150 162 172 186 188 185 191 203 204 189 225 243 252 258 258 254 251 244 250 247 239 238 241 250 259 263 265 270 274 278 280 283 284 279 278 275 275 269 266
177 170 166 167 166 158 159 157 155 154 155 158 162 160 158 155 144 131 145 137 142 162 168 171 169 167 166 173 176 177 165 176 178 176 173 168 147 113 113 109 129 143 151 155 159 153 167 177 184 192 196 208 195 206 217 213 233 241 252 260 261 263 264 265 251 254 256 257 258 260 267 272 277 279 281 280 279 273 263 270 265 258 251 262 265
174 167 167 160 160 157 156 156 151 150 152 157 159 150 136 112 133 141 154 156 159 162 143 101 105 156 164 175 180 171 162 170 176 175 171 169 143 142 133 125 136 153 157 153 151 171 183 172 180 195 207 213 185 214 223 223 235 241 247 261 268 267 272 262 248 242 247 252 259 263 267 272 276 278 280 280 280 279 274 265 263 259 259 255 265
166 158 155 151 149 139 144 147 145 145 151 154 152 151 152 143 134 139 140 138 132 108 125 129 144 122 159 163 151 157 157 169 177 179 175 166 138 141 142 149 158 173 174 167 164 184 199 200 204 212 210 212 219 223 228 221 232 238 247 259 268 273 276 290 284 284 280 271 268 267 266 267 266 266 269 271 269 268 263 267 274 262 261 261 262
147 143 139 137 129 130 136 138 142 146 147 143 143 141 133 125 136 139 140 126 123 125 138 132 152 152 148 156 171 165 161 175 181 177 175 170 154 149 157 161 177 175 175 173 173 188 194 202 200 217 228 229 229 231 231 230 229 239 242 253 265 275 290 281 282 285 287 282 278 273 271 266 261 257 255 258 259 254 256 257 260 262 263 264 257
137 140 135 125 121 125 129 138 136 133 136 135 135 131 133 132 134 126 135 119 123 128 135 117 92 98 101 100 151 152 165 179 189 183 179 177 170 162 166 170 164 161 164 172 186 186 184 184 189 206 225 235 237 245 248 252 254 253 246 247 253 270 286 284 284 277 273 276 275 273 271 266 260 257 257 260 260 256 252 253 255 257 262 269 269
125 118 115 117 122 122 122 120 124 126 127 130 132 126 115 117 123 130 121 124 133 130 129 118 122 115 115 109 104 108 121 154 174 193 185 183 178 169 163 165 158 152 159 165 177 185 186 216 324 160 208 239 246 262 268 269 272 270 266 272 280 286 289 287 289 289 279 276 274 275 272 261 257 259 259 257 256 254 252 253 253 255 256 263 269
112 110 112 113 115 117 120 125 125 126 131 131 128 120 117 123 127 122 119 110 112 112 124 129 130 127 126 134 140 130 120 138 167 179 191 189 190 185 177 154 164 150 160 192 215 241 266 266 249 217 282 282 288 289 285 282 281 278 278 280 283 288 292 290 290 288 285 284 286 286 282 278 274 270 265 262 259 255 255 251 250 254 259 260 257
106 109 110 110 111 110 114 115 114 118 121 118 117 120 124 123 123 121 124 128 132 131 132 126 125 135 144 148 159 162 155 144 176 176 178 194 196 201 204 199 183 169 185 220 226 232 231 184 187 288 293 291 292 292 291 288 281 281 289 299 312 320 310 300 296 291 290 290 288 288 288 285 280 278 274 264 260 257 257 253 248 247 255 258 256
113 111 113 114 110 111 112 111 114 116 119 123 120 116 122 128 126 127 129 131 135 143 150 155 160 161 161 163 163 159 158 153 150 184 187 191 208 212 215 217 223 227 234 235 218 236 256 266 284 296 307 310 307 305 298 286 284 289 304 302 302 294 289 283 283 285 285 286 286 287 289 290 294 297 295 277 277 283 281 288 286 275 270 293 283
109 117 119 116 118 118 113 110 112 117 117 118 119 128 135 136 132 138 143 145 149 150 153 156 160 156 160 164 157 157 153 151 161 159 179 187 206 226 225 230 238 244 263 286 317 324 307 294 290 295 312 317 307 275 279 290 292 292 286 284 272 264 266 287 290 287 283 286 289 293 299 305 306 312 316 316 315 290 292 285 291 287 289 281 286
113 116 122 116 120 122 121 123 121 118 117 117 116 122 130 130 131 141 148 147 149 148 150 156 156 158 165 163 153 147 154 167 167 161 163 170 180 186 200 216 220 222 234 239 246 244 250 94 85 284 271 270 272 274 268 270 267 260 253 253 267 287 287 270 269 277 287 289 291 293 297 300 304 303 300 301 295 304 331 306 298 294 295 283 276
125 123 127 129 126 128 121 119 121 122 120 117 118 120 123 125 130 137 152 152 155 154 153 156 158 163 160 151 144 140 153 165 165 159 161 158 153 148 148 145 142 154 166 144 131 143 129 138 220 230 205 216 223 207 221 226 246 249 252 248 253 265 272 272 276 270 270 279 285 290 296 301 304 304 305 303 296 288 236 198 283 292 283 258 274
125 126 126 126 125 121 122 129 124 121 114 92 71 67 113 132 117 79 44 65 117 150 146 137 148 151 144 144 147 153 156 164 169 143 145 151 150 144 146 147 146 141 146 155 128 129 145 185 191 193 223 244 261 267 266 265 264 266 254 245 262 269 271 274 277 278 279 282 288 296 298 301 298 301 298 294 290 295 308 224 277 259 284 246 254
129 130 131 127 128 126 125 122 120 115 107 105 102 80 58 57 61 99 90 67 65 60 66 91 104 118 105 77 98 170 166 121 125 134 141 147 148 141 141 142 146 144 160 174 169 182 213 216 236 245 250 259 267 273 277 293 295 298 297 305 301 286 290 300 302 298 301 298 303 304 303 302 297 296 295 293 298 301 268 228 273 284 263 269 273
134 134 136 140 139 136 131 124 123 117 116 116 107 106 98 69 72 82 90 88 85 83 84 82 80 86 104 108 79 88 101 117 127 131 137 140 147 150 155 166 175 186 192 188 212 208 208 224 224 229 228 226 235 235 279 305 301 306 310 321 307 306 315 319 320 341 335 326 315 311 305 300 296 297 296 300 304 305 314 227 228 251 258 268 278
138 138 127 128 129 125 106 121 125 126 122 122 118 120 111 106 86 78 89 92 91 93 93 90 86 89 101 109 109 102 116 124 131 135 141 151 159 168 175 184 192 197 210 210 210 219 200 206 216 205 147 183 44 51 26 29 19 12 355 339 329 334 337 343 360 351 325 317 310 303 300 298 298 302 305 308 308 300 296 293 276 264 268 269 267
139 133 127 130 121 124 122 122 129 129 135 131 131 129 127 127 120 109 81 82 89 99 99 96 98 103 110 114 117 129 140 145 145 144 142 142 141 152 161 160 169 190 179 205 215 229 231 174 100 110 112 117 62 71 18 23 15 356 346 329 324 345 5 3 340 312 308 310 313 308 310 307 307 306 306 308 308 305 303 299 297 282 271 270 273
138 140 140 140 136 135 135 137 137 137 137 139 139 137 136 133 135 126 128 122 84 72 77 86 98 105 106 112 119 124 128 132 134 136 137 139 144 156 160 172 164 162 173 190 209 201 192 202 144 117 128 121 123 109 101 47 21 350 352 352 4 351 352 341 332 328 331 325 325 318 315 315 325 324 315 312 309 309 308 308 313 308 299 289 292
122 121 130 134 137 139 141 139 140 139 141 142 138 137 132 133 135 141 147 140 136 132 124 84 79 100 111 113 117 118 118 117 117 122 125 128 132 143 147 156 176 183 170 172 187 209 208 215 161 87 47 11 60 40 28 39 25 10 3 9 343 344 347 339 330 338 339 335 327 320 316 318 318 314 313 315 314 310 310 311 312 318 317 318 317
129 128 131 133 130 133 135 136 138 141 145 140 132 123 129 134 143 146 141 125 123 128 122 102 78 79 100 110 111 110 109 107 106 103 102 109 139 161 169 192 157 184 137 106 99 44 68 72 76 94 66 31 40 39 42 55 17 35 5 345 335 352 331 324 337 338 338 330 313 313 317 318 316 319 318 311 309 309 315 320 319 318 318 314 309
134 130 132 131 128 122 120 118 121 124 114 118 119 124 127 129 127 128 124 128 130 120 118 131 128 109 75 61 95 109 108 108 104 96 83 79 79 77 39 51 107 113 115 107 93 90 90 71 75 81 79 67 47 55 43 37 40 32 323 1 355 312 300 331 313 346 348 324 311 318 324 314 315 314 314 309 307 309 312 317 320 315 314 316 314
141 139 137 132 125 120 116 113 116 118 119 110 103 110 125 127 131 130 130 132 132 134 138 145 141 140 136 129 114 107 117 118 108 83 66 55 50 57 70 72 65 89 99 89 82 84 65 76 75 85 44 77 87 42 46 21 19 30 345 9 318 294 303 314 324 358 323 303 304 324 318 307 304 307 312 306 306 306 306 310 315 316 309 308 307
99 105 111 116 123 121 117 118 125 127 116 118 114 124 127 131 125 124 119 124 132 129 130 136 140 133 128 136 144 152 144 168 149 105 85 75 64 56 63 81 87 82 85 89 70 76 103 93 71 82 102 75 81 47 132 254 38 48 3 316 298 298 314 322 325 321 306 298 309 307 304 301 309 308 302 300 295 294 301 307 303 303 306 305 301
116 121 119 116 116 114 96 109 115 105 108 120 127 125 118 130 130 132 137 134 132 133 136 135 124 114 118 130 151 165 164 144 118 128 123 119 92 57 60 78 86 107 114 100 119 110 90 112 113 104 93 105 143 149 303 128 212 176 238 252 243 285 304 303 298 294 286 297 300 292 285 288 293 297 292 282 286 305 303 292 291 291 290 288 292
107 110 119 113 111 114 111 113 103 109 122 108 122 135 137 129 128 130 129 129 127 130 126 118 111 114 138 159 155 134 124 121 120 118 126 126 129 128 108 103 110 95 117 129 146 115 111 90 75 122 152 156 160 173 185 190 159 235 245 253 260 266 278 285 278 271 274 276 270 273 281 286 288 291 286 286 292 294 290 288 282 281 282 287 290
116 112 108 110 124 113 109 101 93 115 110 114 123 103 108 113 121 122 125 128 127 127 123 116 116 128 146 147 143 127 97 76 97 108 106 119 122 149 127 101 96 122 113 125 124 122 128 134 177 191 198 194 160 191 179 185 200 209 223 231 231 238 250 261 263 265 266 269 263 258 258 263 273 273 278 283 280 272 274 277 277 279 276 274 278
109 105 109 115 117 103 103 106 107 110 118 114 97 100 107 113 113 116 118 117 125 130 129 129 126 113 97 105 121 106 76 82 83 102 116 136 144 145 154 171 157 142 113 59 53 75 73 133 229 258 199 200 179 170 192 215 243 237 230 221 225 226 246 259 274 266 248 245 250 255 257 265 269 262 264 268 269 272 268 275 274 271 269 275 271
94 90 86 78 81 73 85 103 108 91 82 91 98 98 104 102 101 107 115 120 121 115 115 116 125 122 113 95 91 85 112 114 144 151 143 156 163 174 177 162 140 132 146 160 181 160 179 208 222 235 220 177 197 195 207 221 201 207 226 224 238 236 234 241 248 250 256 263 279 282 275 264 257 262 261 257 255 256 264 260 264 264 273 272 276
80 100 103 104 102 100 94 72 71 93 107 104 91 91 90 96 106 103 109 116 105 100 100 103 108 122 121 128 150 156 163 156 166 160 171 174 174 176 165 142 147 171 184 189 179 168 186 210 222 226 241 241 214 204 206 211 209 207 206 208 221 236 238 230 235 247 272 251 258 267 267 262 258 254 255 258 248 245 248 246 243 264 278 274 274
94 96 95 100 101 94 98 97 100 105 108 106 111 109 103 91 91 100 102 99 103 105 102 110 113 125 146 154 168 169 171 163 172 169 179 180 175 180 165 157 155 157 181 192 180 176 208 209 218 228 230 231 225 220 222 211 210 214 215 215 220 227 233 240 258 257 245 232 246 252 261 262 258 252 250 255 269 268 267 270 275 263 250 261 263
91 95 96 94 92 93 94 106 103 101 109 112 107 103 104 101 97 91 88 90 104 108 115 124 139 157 164 169 171 178 169 169 187 182 184 190 177 154 143 138 154 189 202 199 208 210 219 229 234 234 241 241 241 234 235 236 228 218 209 213 220 224 226 231 228 223 229 231 229 238 248 257 260 262 261 254 244 246 247 252 246 252 253 254 259
87 87 83 91 97 99 104 94 102 104 92 101 99 100 97 102 102 102 102 105 104 116 122 132 146 160 153 174 168 165 182 174 172 183 173 181 197 193 194 202 213 228 224 228 221 220 224 228 225 228 239 242 240 247 241 236 235 231 226 223 210 206 209 212 217 222 221 221 218 224 232 243 255 255 254 244 240 241 253 258 266 263 250 242 247
80 92 102 99 100 99 109 111 112 109 108 104 101 101 98 98 96 99 101 107 115 125 144 152 168 162 174 181 171 168 160 175 187 193 196 200 202 211 201 210 217 227 241 250 240 232 229 232 234 233 234 243 242 237 241 233 236 233 230 222 227 230 225 216 210 220 215 210 221 222 228 231 238 247 248 249 248 242 239 242 241 252 268 272 270
71 72 82 88 92 86 88 91 90 92 96 102 102 101 100 96 98 103 107 108 108 121 120 140 167 182 177 181 179 193 190 194 207 202 206 211 202 195 201 207 211 224 230 245 249 243 237 236 232 236 236 237 240 240 236 236 234 234 232 228 236 238 235 230 225 219 212 211 211 213 211 224 230 234 236 234 230 231 234 242 239 239 242 248 253
93 93 82 80 84 89 91 92 92 92 93 97 99 104 109 115 116 113 120 131 152 164 159 173 184 191 207 215 201 206 215 213 217 223 217 222 222 211 224 233 238 236 241 244 252 250 247 243 243 239 235 233 234 236 235 235 235 232 235 238 239 238 234 229 226 227 220 214 213 213 217 218 220 226 231 235 229 223 230 231 229 227 230 240 246